Snowfall_Accumulation
0.0 0.0 0.0 0.0 0.0 0.0 0.0 0.0 0.0 0.0 0.0 0.0 0.0 0.0 0.0 0.0 0.0 0.0 0.0 0.0 0.0 0.0 0.0 0.0 0.0 0.0 0.0 0.0 0.0 0.0 0.0 0.0 0.0 0.0 0.0 0.0 0.0 0.0 0.0 0.0 0.0 0.0 0.0
0.0 0.0 0.0 0.0 0.0 0.0 0.0 0.0 0.0 0.0 0.0 0.0 0.0 0.0 0.0 0.0 0.0 0.0 0.0 0.0 0.0 0.0 0.0 0.0 0.0 0.0 0.0 0.0 0.0 0.0 0.0 0.0 0.0 0.0 0.0 0.0 0.0 0.0 0.0 0.0 0.0 0.0 0.0
0.2 0.0 0.0 0.0 0.0 0.0 0.0 0.0 0.0 0.0 0.0 0.0 0.0 0.0 0.0 0.0 0.0 0.0 0.0 0.0 0.0 0.0 0.0 0.0 0.0 0.0 0.0 0.0 0.0 0.0 0.0 0.0 0.0 0.0 0.0 0.0 0.0 0.0 0.0 0.0 0.0 0.0 0.0
0.5 0.2 0.1 0.1 0.1 0.0 0.0 0.1 0.0 0.0 0.0 0.0 0.1 0.1 0.1 0.0 0.0 0.0 0.0 0.0 0.0 0.0 0.0 0.0 0.0 0.0 0.0 0.0 0.0 0.0 0.0 0.0 0.0 0.0 0.0 0.0 0.0 0.0 0.0 0.0 0.0 0.0 0.0
1.5 0.7 0.9 1.9 0.4 0.1 0.3 0.2 0.1 0.1 0.0 0.1 0.2 0.2 0.0 0.0 0.0 0.0 0.0 0.0 0.0 0.0 0.0 0.0 0.0 0.0 0.0 0.0 0.0 0.0 0.0 0.0 0.0 0.0 0.0 0.0 0.0 0.0 0.0 0.0 0.0 0.0 0.0
1.6 0.5 0.6 2.3 2.8 0.3 0.4 0.3 0.3 0.2 0.1 0.3 0.2 0.2 0.2 0.0 0.0 0.0 0.0 0.0 0.0 0.0 0.0 0.0 0.0 0.0 0.0 0.0 0.0 0.0 0.0 0.0 0.0 0.0 0.0 0.0 0.0 0.0 0.0 0.0 0.0 0.0 0.0
2.7 1.2 0.5 1.1 2.8 3.0 0.6 0.8 0.9 0.8 0.5 0.4 0.3 0.3 0.3 0.1 0.0 0.0 0.0 0.0 0.0 0.0 0.0 0.0 0.0 0.0 0.0 0.0 0.0 0.0 0.0 0.0 0.0 0.0 0.0 0.0 0.0 0.0 0.0 0.0 0.0 0.0 0.0
3.0 2.1 1.0 1.2 1.8 2.4 1.3 1.1 1.2 1.2 0.8 0.6 0.5 0.3 0.1 0.1 0.2 0.0 0.0 0.0 0.0 0.0 0.0 0.0 0.0 0.0 0.0 0.0 0.0 0.0 0.0 0.0 0.0 0.0 0.0 0.0 0.0 0.0 0.0 0.0 0.0 0.0 0.0
4.6 2.4 1.5 1.2 1.5 2.3 3.7 2.2 1.5 1.3 1.6 1.3 1.0 0.6 0.3 0.4 0.3 0.0 0.1 0.0 0.0 0.0 0.0 0.0 0.0 0.0 0.0 0.0 0.0 0.0 0.0 0.0 0.0 0.0 0.0 0.0 0.0 0.0 0.0 0.0 0.0 0.0 0.0
5.3 3.4 2.3 1.7 1.4 2.2 3.1 3.8 2.1 2.4 2.4 2.0 1.8 1.3 1.1 0.6 0.4 0.3 0.2 0.0 0.1 0.1 0.1 0.0 0.0 0.0 0.0 0.0 0.0 0.0 0.0 0.0 0.0 0.0 0.0 0.0 0.0 0.0 0.0 0.0 0.0 0.0 0.1
5.2 6.4 3.2 2.8 1.4 1.5 2.2 3.5 2.8 1.9 2.0 2.2 2.3 2.1 1.6 1.2 0.8 0.7 0.5 0.3 0.5 0.3 0.1 0.1 0.0 0.0 0.1 0.0 0.0 0.0 0.0 0.0 0.0 0.0 0.0 0.0 0.0 0.0 0.0 0.0 0.0 0.0 0.0
5.8 5.2 6.3 4.0 1.5 1.1 1.5 2.6 3.1 2.2 1.7 2.1 2.6 2.8 2.5 1.8 1.6 1.5 1.1 0.6 0.9 0.8 0.4 0.2 0.0 0.0 0.0 0.0 0.0 0.0 0.0 0.0 0.0 0.0 0.0 0.0 0.0 0.0 0.0 0.0 0.3 0.0 0.1
4.9 4.7 5.3 5.4 5.6 3.0 3.0 2.3 2.8 2.6 3.2 1.7 2.4 2.9 3.1 2.4 1.9 2.5 2.3 1.8 1.6 1.3 0.2 0.1 0.2 0.1 0.0 0.0 0.0 0.0 0.1 0.0 0.0 0.0 0.0 0.0 0.0 0.0 0.0 0.8 0.3 0.1 0.9
5.1 5.2 5.4 8.6 6.4 7.2 5.2 2.7 2.4 3.1 3.1 4.5 1.8 2.9 3.6 3.2 3.3 3.9 3.2 3.4 2.6 2.6 0.8 0.5 0.6 0.3 0.2 0.1 0.1 0.1 0.1 0.1 0.0 0.0 0.0 0.0 0.0 0.1 0.5 0.9 0.5 0.2 0.1
3.8 4.5 5.1 5.8 8.8 6.2 6.2 7.4 4.0 3.4 3.1 3.1 4.1 2.8 4.0 4.0 4.0 4.4 3.9 4.6 3.1 4.1 3.1 1.9 1.4 0.9 0.8 0.3 0.4 0.3 0.3 0.5 0.1 0.8 1.8 1.3 0.6 0.3 0.1 0.2 0.4 0.0 0.0
2.9 2.7 2.8 3.4 3.7 6.1 5.8 7.6 8.8 7.3 6.0 5.9 2.9 2.6 3.8 3.3 4.2 5.0 4.9 6.0 4.0 4.4 4.7 3.1 2.8 1.1 0.9 0.4 0.3 0.4 0.7 1.4 1.0 1.7 1.2 0.6 0.9 0.4 0.0 0.0 0.0 0.0 0.8
2.6 1.9 1.7 1.9 1.8 2.3 4.3 4.7 6.5 8.4 8.2 8.3 7.4 2.6 3.0 3.5 4.2 4.9 5.5 8.4 6.9 6.5 6.8 4.2 3.5 2.4 1.1 0.4 0.2 0.5 2.5 2.7 2.2 2.3 1.9 1.1 0.4 0.3 0.2 0.0 0.0 0.1 0.4
1.9 1.5 1.1 0.6 0.1 0.1 0.5 2.3 2.7 4.2 7.2 7.2 6.7 9.6 8.2 5.6 3.6 5.1 8.6 10.2 8.7 8.7 12.0 10.7 9.4 9.1 4.5 1.7 1.7 1.9 1.9 1.1 0.7 0.6 0.6 0.1 0.0 0.0 0.1 0.2 1.8 1.0 0.2
2.2 1.8 1.0 0.4 0.0 0.0 0.0 0.0 0.8 1.9 2.9 5.1 6.2 6.9 9.2 9.9 8.1 6.6 7.9 8.2 11.3 12.1 11.4 9.8 9.3 6.4 5.1 3.1 2.7 2.6 2.3 1.2 0.4 0.2 0.0 0.1 0.4 0.2 0.1 1.3 2.3 0.6 0.2
0.0 0.2 0.2 0.1 0.1 0.0 0.0 0.0 0.0 0.1 2.2 1.4 3.3 3.9 5.8 9.0 11.5 11.8 11.1 11.4 11.5 13.3 10.1 8.2 9.3 5.8 6.2 3.2 3.4 4.6 7.5 9.8 4.3 1.1 0.3 0.0 0.0 0.4 0.7 1.5 1.8 2.3 0.1
0.0 0.0 0.0 0.0 0.0 0.0 0.0 0.0 0.0 2.5 4.1 0.0 1.6 2.6 3.6 6.4 10.6 14.1 14.2 13.2 11.7 10.3 10.4 8.0 8.6 7.7 5.1 8.0 5.2 6.5 13.3 14.4 11.3 8.4 4.1 0.4 0.1 0.6 0.4 0.2 0.8 1.5 0.1
0.0 0.0 1.0 1.6 0.0 0.1 0.0 2.2 3.0 1.8 2.9 1.8 3.1 3.9 3.4 3.3 5.2 8.3 9.3 9.8 9.2 8.9 10.0 9.5 9.3 8.7 6.6 3.7 7.5 7.3 11.0 12.7 17.8 16.3 4.3 2.5 1.4 0.4 0.1 0.1 0.4 0.4 0.3
0.0 0.0 0.0 0.0 0.0 0.5 0.1 1.7 1.2 0.5 1.1 0.7 0.5 0.9 0.4 0.2 1.1 2.7 5.6 7.2 8.5 9.1 10.2 9.6 9.2 7.9 7.9 6.4 4.3 7.0 10.3 13.8 22.5 19.1 11.9 5.3 1.7 1.8 0.0 0.2 0.3 0.2 0.4
0.9 0.4 0.4 0.1 0.0 0.1 0.1 0.0 0.1 0.1 0.0 0.1 0.0 0.0 0.0 0.1 0.4 0.7 2.4 3.8 6.0 7.3 8.1 9.0 8.9 8.1 6.7 6.6 4.7 6.3 9.4 12.8 22.8 24.0 15.6 8.6 5.7 4.8 6.0 6.8 2.6 1.0 1.4
3.3 2.1 2.3 1.7 0.7 0.3 0.2 0.1 0.2 0.2 0.2 0.1 0.0 0.0 0.0 0.0 0.1 0.2 0.6 2.4 4.0 5.7 7.4 8.4 7.4 8.2 7.9 8.1 6.2 7.3 8.1 8.1 15.8 24.4 26.7 13.8 10.1 7.4 7.3 6.5 2.9 3.3 4.2
6.1 4.6 3.6 1.8 2.3 1.4 1.0 0.8 0.4 0.6 0.5 0.2 0.0 0.0 0.0 0.0 0.0 0.0 0.1 0.1 0.6 1.3 1.9 2.7 3.9 3.4 4.3 3.3 3.3 3.7 4.9 5.5 4.3 8.3 14.8 19.4 20.4 20.0 19.6 15.7 13.4 11.6 10.1